Regional Weather Roundup
Issued by NWS Green Bay, WI

Home | Current Version | Previous Version | Text Only | Print | Product List | Glossary On
Versions: 1 2 3 4 5 6 7 8 9 10 11 12 13 14 15 16 17 18 19 20 21 22 23 24 25 26 27 28 29 30 31 32 33 34 35 36 37 38 39 40 41 42 43 44 45 46 47 48 49 50
000
ASUS43 KGRB 290911
RWRGRB

NORTH-CENTRAL AND NORTHEAST WISCONSIN REGIONAL WEATHER ROUNDUP
NATIONAL WEATHER SERVICE GREEN BAY WI
400 AM CDT SUN MAY 29 2016

WIZ005-009-010>012-018-019-291000-
NORTH CENTRAL WISCONSIN

CITY           SKY/WX    TMP DP  RH WIND       PRES   REMARKS
IRONWOOD       CLOUDY    55  54  94 CALM      29.76F
MANITOWISH WTR NOT AVBL
ARBOR VITAE    MOCLDY    60  59  95 SW7       29.81S
EAGLE RIVER    LGT RAIN  62  61  97 SW8       29.81S
LAND O LAKES   RAIN      63  62  99 SW3       29.81S
RHINELANDER    MOCLDY    61  59  93 SW10      29.83S
PHILLIPS       CLOUDY    60  60 100 SW10      29.81S
ANTIGO         CLOUDY    62  61  97 SW9       29.84S
TOMAHAWK       PTCLDY    58  57  95 CALM      29.83S
MERRILL        CLOUDY    63  63 100 SW7       29.84S
$$

WIZ013-073-291000-
NORTHEAST WISCONSIN

CITY           SKY/WX    TMP DP  RH WIND       PRES   REMARKS
IRON MOUNTAIN  CLOUDY    63  60  90 S3        29.80F
MARINETTE      CLEAR     63  61  94 S6        29.84S
OCONTO         CLEAR    N/A N/A N/A CALM      29.84R
$$

WIZ017-030-035>037-045-291000-
CENTRAL WISCONSIN

CITY           SKY/WX    TMP DP  RH WIND       PRES   REMARKS
MEDFORD        PTCLDY    58  58 100 SW5       29.83S
WAUSAU         CLOUDY    65  61  87 SW9       29.82S
MOSINEE        CLOUDY    61  61 100 S7        29.85S
MARSHFIELD     CLOUDY    63  60  90 SW6       29.82F
WISC RAPIDS    CLOUDY    64  60  87 VRB6      29.85S
STEVENS POINT  PTCLDY    61  60  97 SW5       29.85S
WAUPACA        CLEAR     64  64  99 CALM      29.85S
SHAWANO        MOCLDY    65  62  90 S3        29.84S
CLINTONVILLE   PTCLDY    63  61  94 SW6       29.84S
WAUTOMA        PTCLDY    63  62  97 S3        29.85F
$$

WIZ038-039-048-051-291000-
FOX VALLEY

CITY           SKY/WX    TMP DP  RH WIND       PRES   REMARKS
NWS GREEN BAY  CLOUDY    65  62  90 S7        29.85S
APPLETON       PTCLDY    63  63 100 SW7       29.84S
OSHKOSH        CLOUDY    64  61  90 S6        29.86S
FOND DU LAC    CLOUDY    65  62  90 S9        29.87S
$$

WIZ022-050-052-291000-
EAST CENTRAL WISCONSIN

CITY           SKY/WX    TMP DP  RH WIND       PRES   REMARKS
EPHRAIM        FAIR      55  54  97 S7        29.85R
STURGEON BAY   NOT AVBL
MANITOWOC      CLOUDY    63  61  93 S7        29.88S
SHEBOYGAN      PTCLDY    61  60  97 S6        29.88S
$$

LMZ563-521-522-541>543-291000-
LAKESHORE

STATION/POSITION TIME  TEMP    WIND        PRES    VSBY  WAVE
                       AIR SEA DIR/SP/G                  HT/PER
                 (UTC) (F)     (DEG/KT/KT) (MB)    (MI)  (FT/S)
SHEBOYGAN LKSHOR 0900   58     180/ 10/ 11 1012.3S
KEWAUNEE LKSHORE 0800   51     180/ 10/ 11 1010.6S
ALGOMA MARINA    0817          200/  1/  4   N/A
NORTHPORT PIER   0800   60     150/  6/ 10 1010.8S
N MID LAKE BUOY  0850   52 46  190/ 14/ 16 1010.7F         3/ 5
SISTER BAY LKSHO 0805   62     150/ 11/ 15   N/A
CHAMBERS ISLAND  0800   63     160/  3/  9 1010.5F
MENOMINEE LKSHOR 0800   63     170/  7/  9 1009.3F
$$



USA.gov is the U.S. government's official web portal to all federal, state and local government web resources and services.